User: anonymous   Login
Location: Gipe Farm
(40.9466°N, 95.5370°W)
Time: 03:07:05
(UTC-05:00)
Language:

Cosmos 2082 Rocket - Orbit

View from above orbital plane
View from above orbital plane
View from above satellite
View from above satellite

Ground track
Ground track

The orbit data is extracted from the following two-line orbital elements,

1 20625U 90046B   17081.93971337 +.00000256 +00000-0 +15774-3 0  9993
2 20625 071.0003 330.1555 0016170 241.5875 118.3618 14.14610888385383
Epoch (UTC): 22 March 2017 22:33:11
Eccentricity: 0.0016170
inclination: 71.0003°
perigee height: 832 km
apogee height: 855 km
right ascension of ascending node: 330.1555°
argument of perigee: 241.5875°
revolutions per day: 14.14610888
mean anomaly at epoch: 118.3618°
orbit number at epoch: 38538

The dashed part of the orbit path shows where the satellite is in the earth's shadow,  

DLR